Time,TemperatureF,DewpointF,PressureIn,WindDirection,WindDirectionDegrees,WindSpeedMPH,WindSpeedGustMPH,Humidity,HourlyPrecipIn,Conditions,Clouds,dailyrainin,SoftwareType,DateUTC
2013-03-09 00:02:00,39.3,27.8,30.16,NNW,345,0.0,5.0,63,0.00,,SKC,0.00,VWS V14.01,2013-03-09 05:02:00,
2013-03-09 00:03:00,39.3,27.8,30.16,NW,319,4.0,5.0,63,0.00,,SKC,0.00,VWS V14.01,2013-03-09 05:03:00,
2013-03-09 00:07:00,39.4,27.5,30.16,NW,323,2.0,6.0,62,0.00,,SKC,0.00,VWS V14.01,2013-03-09 05:07:00,
2013-03-09 00:15:00,39.5,28.4,30.16,NW,319,4.0,6.0,64,0.00,,SKC,0.00,VWS V14.01,2013-03-09 05:15:00,
2013-03-09 00:23:00,39.5,28.0,30.16,NNW,331,2.0,8.0,63,0.00,,SKC,0.00,VWS V14.01,2013-03-09 05:23:00,
2013-03-09 00:27:00,39.5,27.6,30.16,NW,313,3.0,8.0,62,0.00,,SKC,0.00,VWS V14.01,2013-03-09 05:27:00,
2013-03-09 00:31:00,39.4,27.5,30.16,NW,323,0.0,8.0,62,0.00,,SKC,0.00,VWS V14.01,2013-03-09 05:31:00,
2013-03-09 00:32:00,39.4,27.5,30.16,NW,323,0.0,8.0,62,0.00,,SKC,0.00,VWS V14.01,2013-03-09 05:32:00,
2013-03-09 00:39:00,39.4,27.9,30.17,NW,323,4.0,5.0,63,0.00,,SKC,0.00,VWS V14.01,2013-03-09 05:39:00,
2013-03-09 00:47:00,39.2,27.3,30.17,NW,326,1.0,6.0,62,0.00,,SKC,0.00,VWS V14.01,2013-03-09 05:47:00,
2013-03-09 00:55:00,39.1,27.2,30.17,NW,306,1.0,6.0,62,0.00,,SKC,0.00,VWS V14.01,2013-03-09 05:55:00,
2013-03-09 00:59:00,39.1,27.6,30.17,NW,306,2.0,6.0,63,0.00,,SKC,0.00,VWS V14.01,2013-03-09 05:59:00,
2013-03-09 01:02:00,39.0,27.5,30.17,NW,312,3.0,6.0,63,0.00,,SKC,0.00,VWS V14.01,2013-03-09 06:02:00,
2013-03-09 01:03:00,39.0,27.1,30.17,NW,306,1.0,4.0,62,0.00,,SKC,0.00,VWS V14.01,2013-03-09 06:03:00,
2013-03-09 01:07:00,38.9,27.0,30.17,NNW,333,1.0,4.0,62,0.00,,SKC,0.00,VWS V14.01,2013-03-09 06:07:00,
2013-03-09 01:15:00,38.8,26.9,30.17,NW,324,0.0,4.0,62,0.00,,SKC,0.00,VWS V14.01,2013-03-09 06:15:00,
2013-03-09 01:19:00,38.7,27.2,30.18,NW,321,0.0,4.0,63,0.00,,SKC,0.00,VWS V14.01,2013-03-09 06:19:00,
2013-03-09 01:23:00,38.6,26.7,30.18,NW,321,2.0,4.0,62,0.00,,SKC,0.00,VWS V14.01,2013-03-09 06:23:00,
2013-03-09 01:27:00,38.5,27.0,30.17,NNW,327,0.0,4.0,63,0.00,,SKC,0.00,VWS V14.01,2013-03-09 06:27:00,
2013-03-09 01:32:00,38.3,27.2,30.17,NW,319,0.0,4.0,64,0.00,,SKC,0.00,VWS V14.01,2013-03-09 06:32:00,
2013-03-09 01:39:00,38.0,26.9,30.17,NW,313,0.0,4.0,64,0.00,,SKC,0.00,VWS V14.01,2013-03-09 06:39:00,
2013-03-09 01:43:00,37.8,27.1,30.17,NNW,329,2.0,4.0,65,0.00,,SKC,0.00,VWS V14.01,2013-03-09 06:43:00,
2013-03-09 01:47:00,37.7,27.0,30.17,NNW,333,0.0,4.0,65,0.00,,SKC,0.00,VWS V14.01,2013-03-09 06:47:00,
2013-03-09 01:51:00,37.6,26.9,30.17,NNW,332,0.0,4.0,65,0.00,,SKC,0.00,VWS V14.01,2013-03-09 06:51:00,
2013-03-09 01:55:00,37.5,26.8,30.17,NNW,327,0.0,4.0,65,0.00,,SKC,0.00,VWS V14.01,2013-03-09 06:55:00,
2013-03-09 01:59:00,37.4,26.4,30.17,NW,304,0.0,4.0,64,0.00,,SKC,0.00,VWS V14.01,2013-03-09 06:59:00,
2013-03-09 02:03:00,37.3,26.3,30.17,NW,304,1.0,1.0,64,0.00,,SKC,0.00,VWS V14.01,2013-03-09 07:03:00,
2013-03-09 02:07:00,37.2,26.5,30.17,NW,310,0.0,2.0,65,0.00,,SKC,0.00,VWS V14.01,2013-03-09 07:07:00,
2013-03-09 02:11:00,37.1,26.4,30.17,NW,310,0.0,2.0,65,0.00,,SKC,0.00,VWS V14.01,2013-03-09 07:11:00,
2013-03-09 02:15:00,37.0,26.7,30.16,NW,310,0.0,2.0,66,0.00,,SKC,0.00,VWS V14.01,2013-03-09 07:15:00,
2013-03-09 02:23:00,36.8,26.5,30.16,NNW,338,3.0,4.0,66,0.00,,SKC,0.00,VWS V14.01,2013-03-09 07:23:00,
2013-03-09 02:27:00,36.6,26.3,30.16,NNW,336,0.0,4.0,66,0.00,,SKC,0.00,VWS V14.01,2013-03-09 07:27:00,
2013-03-09 02:31:00,36.5,26.2,30.16,NNW,336,0.0,4.0,66,0.00,,SKC,0.00,VWS V14.01,2013-03-09 07:31:00,
2013-03-09 02:32:00,36.5,26.2,30.16,NNW,336,0.0,4.0,66,0.00,,SKC,0.00,VWS V14.01,2013-03-09 07:32:00,
2013-03-09 02:39:00,36.3,26.0,30.16,NW,318,2.0,3.0,66,0.00,,SKC,0.00,VWS V14.01,2013-03-09 07:39:00,
2013-03-09 02:43:00,36.3,26.0,30.16,NW,326,2.0,4.0,66,0.00,,SKC,0.00,VWS V14.01,2013-03-09 07:43:00,
2013-03-09 02:47:00,36.2,26.0,30.16,NW,326,0.0,4.0,66,0.00,,SKC,0.00,VWS V14.01,2013-03-09 07:47:00,
2013-03-09 02:51:00,36.1,26.2,30.16,NW,326,0.0,4.0,67,0.00,,SKC,0.00,VWS V14.01,2013-03-09 07:51:00,
2013-03-09 02:59:00,36.0,25.8,30.16,NW,326,0.0,4.0,66,0.00,,SKC,0.00,VWS V14.01,2013-03-09 07:59:00,
2013-03-09 03:02:00,35.9,25.7,30.16,NW,326,0.0,4.0,66,0.00,,SKC,0.00,VWS V14.01,2013-03-09 08:02:00,
2013-03-09 03:03:00,35.9,26.0,30.16,NW,326,0.0,0.0,67,0.00,,SKC,0.00,VWS V14.01,2013-03-09 08:03:00,
2013-03-09 03:07:00,35.8,26.3,30.16,WNW,296,2.0,2.0,68,0.00,,SKC,0.00,VWS V14.01,2013-03-09 08:07:00,
2013-03-09 03:11:00,35.7,26.5,30.17,WNW,296,0.0,3.0,69,0.00,,SKC,0.00,VWS V14.01,2013-03-09 08:11:00,
2013-03-09 03:16:00,35.5,26.4,30.17,WNW,296,0.0,3.0,69,0.00,,SKC,0.00,VWS V14.01,2013-03-09 08:16:00,
2013-03-09 03:20:00,35.3,25.8,30.17,WNW,296,0.0,3.0,68,0.00,,SKC,0.00,VWS V14.01,2013-03-09 08:20:00,
2013-03-09 03:24:00,35.1,25.6,30.17,WNW,299,0.0,3.0,68,0.00,,SKC,0.00,VWS V14.01,2013-03-09 08:24:00,
2013-03-09 03:28:00,35.0,25.9,30.17,WNW,299,0.0,3.0,69,0.00,,SKC,0.00,VWS V14.01,2013-03-09 08:28:00,
2013-03-09 03:32:00,34.9,26.1,30.17,WNW,299,0.0,3.0,70,0.00,,SKC,0.00,VWS V14.01,2013-03-09 08:32:00,
2013-03-09 03:36:00,34.7,25.9,30.17,WNW,299,0.0,2.0,70,0.00,,SKC,0.00,VWS V14.01,2013-03-09 08:36:00,
2013-03-09 03:40:00,34.5,25.7,30.17,NW,309,0.0,2.0,70,0.00,,SKC,0.00,VWS V14.01,2013-03-09 08:40:00,
2013-03-09 03:44:00,34.4,25.6,30.17,NW,309,0.0,2.0,70,0.00,,SKC,0.00,VWS V14.01,2013-03-09 08:44:00,
2013-03-09 03:52:00,34.2,25.8,30.17,NW,309,0.0,2.0,71,0.00,,SKC,0.00,VWS V14.01,2013-03-09 08:52:00,
2013-03-09 03:56:00,34.1,25.7,30.17,NW,309,0.0,2.0,71,0.00,,SKC,0.00,VWS V14.01,2013-03-09 08:56:00,
2013-03-09 04:00:00,34.1,25.7,30.17,NW,309,0.0,2.0,71,0.00,,SKC,0.00,VWS V14.01,2013-03-09 09:00:00,
2013-03-09 04:08:00,33.8,25.7,30.18,NW,309,0.0,1.0,72,0.00,,SKC,0.00,VWS V14.01,2013-03-09 09:08:00,
2013-03-09 04:12:00,33.7,25.6,30.18,NW,309,0.0,1.0,72,0.00,,SKC,0.00,VWS V14.01,2013-03-09 09:12:00,
2013-03-09 04:16:00,33.6,25.5,30.18,NW,309,0.0,1.0,72,0.00,,SKC,0.00,VWS V14.01,2013-03-09 09:16:00,
2013-03-09 04:20:00,33.5,25.8,30.18,NW,309,0.0,2.0,73,0.00,,SKC,0.00,VWS V14.01,2013-03-09 09:20:00,
2013-03-09 04:24:00,33.4,25.4,30.18,NW,319,0.0,4.0,72,0.00,,SKC,0.00,VWS V14.01,2013-03-09 09:24:00,
2013-03-09 04:28:00,33.4,25.0,30.18,NW,319,2.0,4.0,71,0.00,,SKC,0.00,VWS V14.01,2013-03-09 09:28:00,
2013-03-09 04:32:00,33.5,25.1,30.18,WNW,292,0.0,4.0,71,0.00,,SKC,0.00,VWS V14.01,2013-03-09 09:32:00,
2013-03-09 04:36:00,33.5,25.1,30.18,NW,306,0.0,2.0,71,0.00,,SKC,0.00,VWS V14.01,2013-03-09 09:36:00,
2013-03-09 04:40:00,33.6,25.2,30.18,NW,306,0.0,2.0,71,0.00,,SKC,0.00,VWS V14.01,2013-03-09 09:40:00,
2013-03-09 04:44:00,33.6,25.2,30.18,NW,306,0.0,3.0,71,0.00,,SKC,0.00,VWS V14.01,2013-03-09 09:44:00,
2013-03-09 04:48:00,33.6,25.2,30.18,WNW,284,0.0,4.0,71,0.00,,SKC,0.00,VWS V14.01,2013-03-09 09:48:00,
2013-03-09 04:52:00,33.6,24.9,30.18,WNW,286,0.0,4.0,70,0.00,,SKC,0.00,VWS V14.01,2013-03-09 09:52:00,
2013-03-09 04:56:00,33.6,25.2,30.18,WNW,286,0.0,4.0,71,0.00,,SKC,0.00,VWS V14.01,2013-03-09 09:56:00,
2013-03-09 05:02:00,33.5,25.1,30.18,WNW,286,0.0,4.0,71,0.00,,SKC,0.00,VWS V14.01,2013-03-09 10:02:00,
2013-03-09 05:04:00,33.5,25.1,30.19,WNW,286,0.0,2.0,71,0.00,,SKC,0.00,VWS V14.01,2013-03-09 10:04:00,
2013-03-09 05:08:00,33.4,25.4,30.19,WNW,286,0.0,2.0,72,0.00,,SKC,0.00,VWS V14.01,2013-03-09 10:08:00,
2013-03-09 05:12:00,33.3,25.6,30.19,WNW,286,0.0,2.0,73,0.00,,SKC,0.00,VWS V14.01,2013-03-09 10:12:00,
2013-03-09 05:16:00,33.2,25.5,30.19,WNW,286,0.0,2.0,73,0.00,,SKC,0.00,VWS V14.01,2013-03-09 10:16:00,
2013-03-09 05:20:00,33.0,25.3,30.19,WNW,286,0.0,2.0,73,0.00,,SKC,0.00,VWS V14.01,2013-03-09 10:20:00,
2013-03-09 05:24:00,32.9,25.2,30.19,WNW,296,0.0,3.0,73,0.00,,SKC,0.00,VWS V14.01,2013-03-09 10:24:00,
2013-03-09 05:28:00,32.8,24.8,30.19,WNW,296,0.0,3.0,72,0.00,,SKC,0.00,VWS V14.01,2013-03-09 10:28:00,
2013-03-09 05:32:00,32.7,24.7,30.19,WNW,296,0.0,3.0,72,0.00,,SKC,0.00,VWS V14.01,2013-03-09 10:32:00,
2013-03-09 05:36:00,32.7,24.4,30.20,WNW,296,0.0,1.0,71,0.00,,SKC,0.00,VWS V14.01,2013-03-09 10:36:00,
2013-03-09 05:44:00,32.5,24.5,30.20,WNW,296,1.0,2.0,72,0.00,,SKC,0.00,VWS V14.01,2013-03-09 10:44:00,
2013-03-09 05:52:00,32.3,24.3,30.20,WNW,296,0.0,2.0,72,0.00,,SKC,0.00,VWS V14.01,2013-03-09 10:52:00,
2013-03-09 05:56:00,32.3,24.3,30.20,WNW,296,0.0,2.0,72,0.00,,SKC,0.00,VWS V14.01,2013-03-09 10:56:00,
2013-03-09 06:02:00,32.2,24.5,30.20,WNW,296,0.0,2.0,73,0.00,,SKC,0.00,VWS V14.01,2013-03-09 11:02:00,
2013-03-09 06:04:00,32.1,24.4,30.20,WNW,296,0.0,0.0,73,0.00,,SKC,0.00,VWS V14.01,2013-03-09 11:04:00,
2013-03-09 06:08:00,32.1,24.4,30.20,WNW,296,0.0,1.0,73,0.00,,SKC,0.00,VWS V14.01,2013-03-09 11:08:00,
2013-03-09 06:12:00,32.1,24.4,30.21,WNW,296,0.0,1.0,73,0.00,,SKC,0.00,VWS V14.01,2013-03-09 11:12:00,
2013-03-09 06:20:00,32.0,24.7,30.21,WNW,296,0.0,1.0,74,0.00,,SKC,0.00,VWS V14.01,2013-03-09 11:20:00,
2013-03-09 06:24:00,31.9,24.6,30.21,WNW,296,0.0,1.0,74,0.00,,SKC,0.00,VWS V14.01,2013-03-09 11:24:00,
2013-03-09 06:28:00,31.9,24.6,30.21,WNW,296,2.0,2.0,74,0.00,,SKC,0.00,VWS V14.01,2013-03-09 11:28:00,
2013-03-09 06:32:00,31.8,24.5,30.21,WNW,296,0.0,2.0,74,0.00,,SKC,0.00,VWS V14.01,2013-03-09 11:32:00,
2013-03-09 06:36:00,31.8,25.1,30.21,WNW,296,0.0,0.0,76,0.00,,SKC,0.00,VWS V14.01,2013-03-09 11:36:00,
2013-03-09 06:44:00,31.7,24.7,30.21,WNW,296,0.0,0.0,75,0.00,,SKC,0.00,VWS V14.01,2013-03-09 11:44:00,
2013-03-09 06:48:00,31.7,24.7,30.22,WNW,296,0.0,1.0,75,0.00,,SKC,0.00,VWS V14.01,2013-03-09 11:48:00,
2013-03-09 06:52:00,31.7,25.0,30.22,WNW,296,0.0,1.0,76,0.00,,SKC,0.00,VWS V14.01,2013-03-09 11:52:00,
2013-03-09 06:56:00,31.6,25.2,30.22,WNW,296,0.0,1.0,77,0.00,,SKC,0.00,VWS V14.01,2013-03-09 11:56:00,
2013-03-09 07:00:00,31.6,24.9,30.22,WNW,296,0.0,1.0,76,0.00,,SKC,0.00,VWS V14.01,2013-03-09 12:00:00,
2013-03-09 07:02:00,31.6,25.2,30.22,WNW,296,0.0,1.0,77,0.00,,SKC,0.00,VWS V14.01,2013-03-09 12:02:00,
2013-03-09 07:04:00,31.6,25.2,30.22,WNW,296,0.0,0.0,77,0.00,,SKC,0.00,VWS V14.01,2013-03-09 12:04:00,
2013-03-09 07:12:00,31.9,25.5,30.23,WNW,296,0.0,2.0,77,0.00,,SKC,0.00,VWS V14.01,2013-03-09 12:12:00,
2013-03-09 07:16:00,32.0,25.6,30.23,WNW,296,0.0,2.0,77,0.00,,SKC,0.00,VWS V14.01,2013-03-09 12:16:00,
2013-03-09 07:20:00,32.3,25.9,30.23,WNW,296,1.0,2.0,77,0.00,,SKC,0.00,VWS V14.01,2013-03-09 12:20:00,
2013-03-09 07:24:00,32.8,26.1,30.23,WNW,296,0.0,2.0,76,0.00,,SKC,0.00,VWS V14.01,2013-03-09 12:24:00,
2013-03-09 07:28:00,33.1,26.0,30.23,WNW,296,2.0,3.0,75,0.00,,SKC,0.00,VWS V14.01,2013-03-09 12:28:00,
2013-03-09 07:32:00,33.6,26.2,30.23,WNW,300,0.0,3.0,74,0.00,,SKC,0.00,VWS V14.01,2013-03-09 12:32:00,
2013-03-09 07:36:00,34.3,25.9,30.23,NNW,328,4.0,4.0,71,0.00,,SKC,0.00,VWS V14.01,2013-03-09 12:36:00,
2013-03-09 07:40:00,35.2,26.1,30.23,NNW,329,1.0,4.0,69,0.00,,SKC,0.00,VWS V14.01,2013-03-09 12:40:00,
2013-03-09 07:44:00,36.1,26.6,30.23,NNW,334,2.0,4.0,68,0.00,,SKC,0.00,VWS V14.01,2013-03-09 12:44:00,
2013-03-09 07:48:00,37.2,26.9,30.23,NNW,342,1.0,4.0,66,0.00,,SKC,0.00,VWS V14.01,2013-03-09 12:48:00,
2013-03-09 07:52:00,38.0,26.5,30.24,NW,325,3.0,4.0,63,0.00,,SKC,0.00,VWS V14.01,2013-03-09 12:52:00,
2013-03-09 07:56:00,38.7,27.2,30.24,NNW,336,3.0,5.0,63,0.00,,SKC,0.00,VWS V14.01,2013-03-09 12:56:00,
2013-03-09 08:00:00,39.6,27.3,30.24,NW,311,2.0,5.0,61,0.00,,SKC,0.00,VWS V14.01,2013-03-09 13:00:00,
2013-03-09 08:02:00,39.8,27.5,30.24,NNW,333,3.0,5.0,61,0.00,,SKC,0.00,VWS V14.01,2013-03-09 13:02:00,
2013-03-09 08:04:00,40.2,27.0,30.24,NNW,329,2.0,3.0,59,0.00,,SKC,0.00,VWS V14.01,2013-03-09 13:04:00,
2013-03-09 08:12:00,41.6,27.9,30.24,NW,307,1.0,5.0,58,0.00,,SKC,0.00,VWS V14.01,2013-03-09 13:12:00,
2013-03-09 08:16:00,42.3,27.7,30.24,North,355,4.0,5.0,56,0.00,,SKC,0.00,VWS V14.01,2013-03-09 13:16:00,
2013-03-09 08:20:00,42.9,27.4,30.24,NNW,327,0.0,5.0,54,0.00,,SKC,0.00,VWS V14.01,2013-03-09 13:20:00,
2013-03-09 08:28:00,44.5,28.5,30.24,NW,321,5.0,6.0,53,0.00,,SKC,0.00,VWS V14.01,2013-03-09 13:28:00,
2013-03-09 08:32:00,45.3,28.2,30.23,NNW,335,0.0,6.0,51,0.00,,SKC,0.00,VWS V14.01,2013-03-09 13:32:00,
2013-03-09 08:40:00,47.1,29.4,30.23,NNW,344,0.0,6.0,50,0.00,,SKC,0.00,VWS V14.01,2013-03-09 13:40:00,
2013-03-09 08:48:00,48.5,29.2,30.23,NNW,340,1.0,6.0,47,0.00,,SKC,0.00,VWS V14.01,2013-03-09 13:48:00,
2013-03-09 08:56:00,50.3,29.2,30.23,NNW,341,4.0,6.0,44,0.00,,SKC,0.00,VWS V14.01,2013-03-09 13:56:00,
2013-03-09 09:02:00,50.8,28.0,30.23,NW,322,0.0,6.0,41,0.00,,SKC,0.00,VWS V14.01,2013-03-09 14:02:00,
2013-03-09 09:04:00,50.8,28.5,30.23,NNW,327,0.0,4.0,42,0.00,,SKC,0.00,VWS V14.01,2013-03-09 14:04:00,
2013-03-09 09:13:00,51.4,29.7,30.24,NNW,334,3.0,5.0,43,0.00,,SKC,0.00,VWS V14.01,2013-03-09 14:13:00,
2013-03-09 09:17:00,51.7,28.8,30.24,North,5,0.0,5.0,41,0.00,,SKC,0.00,VWS V14.01,2013-03-09 14:17:00,
2013-03-09 09:29:00,52.8,29.2,30.24,NE,44,0.0,6.0,40,0.00,,SKC,0.00,VWS V14.01,2013-03-09 14:29:00,
2013-03-09 09:32:00,53.2,28.9,30.24,NNW,329,0.0,6.0,39,0.00,,SKC,0.00,VWS V14.01,2013-03-09 14:32:00,
2013-03-09 09:37:00,53.6,28.6,30.24,NW,323,7.0,7.0,38,0.00,,SKC,0.00,VWS V14.01,2013-03-09 14:37:00,
2013-03-09 09:41:00,53.8,29.4,30.24,North,355,0.0,8.0,39,0.00,,SKC,0.00,VWS V14.01,2013-03-09 14:41:00,
2013-03-09 09:45:00,54.3,30.5,30.24,NE,41,0.0,8.0,40,0.00,,SKC,0.00,VWS V14.01,2013-03-09 14:45:00,
2013-03-09 09:49:00,54.5,29.4,30.24,NNW,346,0.0,8.0,38,0.00,,SKC,0.00,VWS V14.01,2013-03-09 14:49:00,
2013-03-09 09:53:00,54.6,28.2,30.24,NW,325,0.0,8.0,36,0.00,,SKC,0.00,VWS V14.01,2013-03-09 14:53:00,
2013-03-09 09:57:00,54.4,28.0,30.24,WNW,302,1.0,8.0,36,0.00,,SKC,0.00,VWS V14.01,2013-03-09 14:57:00,
2013-03-09 10:02:00,54.6,29.5,30.24,NNE,22,0.0,8.0,38,0.00,,SKC,0.00,VWS V14.01,2013-03-09 15:02:00,
2013-03-09 10:05:00,55.0,29.2,30.24,NNW,347,0.0,4.0,37,0.00,,SKC,0.00,VWS V14.01,2013-03-09 15:05:00,
2013-03-09 10:09:00,55.6,29.1,30.24,NE,34,0.0,4.0,36,0.00,,SKC,0.00,VWS V14.01,2013-03-09 15:09:00,
2013-03-09 10:17:00,56.4,29.1,30.24,NNW,338,0.0,5.0,35,0.00,,SKC,0.00,VWS V14.01,2013-03-09 15:17:00,
2013-03-09 10:25:00,57.1,29.0,30.24,NW,319,0.0,5.0,34,0.00,,SKC,0.00,VWS V14.01,2013-03-09 15:25:00,
2013-03-09 10:29:00,56.8,29.5,30.25,NW,323,4.0,6.0,35,0.00,,SKC,0.00,VWS V14.01,2013-03-09 15:29:00,
2013-03-09 10:32:00,56.4,28.4,30.24,North,355,0.0,6.0,34,0.00,,SKC,0.00,VWS V14.01,2013-03-09 15:32:00,
2013-03-09 10:33:00,56.4,28.4,30.24,North,355,0.0,0.0,34,0.00,,SKC,0.00,VWS V14.01,2013-03-09 15:33:00,
2013-03-09 10:37:00,56.7,30.1,30.24,NNE,29,1.0,5.0,36,0.00,,SKC,0.00,VWS V14.01,2013-03-09 15:37:00,
2013-03-09 10:45:00,57.8,29.6,30.24,North,360,0.0,6.0,34,0.00,,SKC,0.00,VWS V14.01,2013-03-09 15:45:00,
2013-03-09 10:49:00,58.0,29.8,30.24,NNW,336,3.0,6.0,34,0.00,,SKC,0.00,VWS V14.01,2013-03-09 15:49:00,
2013-03-09 10:57:00,57.9,27.5,30.24,NW,319,0.0,6.0,31,0.00,,SKC,0.00,VWS V14.01,2013-03-09 15:57:00,
2013-03-09 11:01:00,57.3,28.5,30.24,NW,307,0.0,6.0,33,0.00,,SKC,0.00,VWS V14.01,2013-03-09 16:01:00,
2013-03-09 11:09:00,58.2,29.3,30.24,NW,308,0.0,5.0,33,0.00,,SKC,0.00,VWS V14.01,2013-03-09 16:09:00,
2013-03-09 11:13:00,58.4,27.1,30.24,NW,309,0.0,5.0,30,0.00,,SKC,0.00,VWS V14.01,2013-03-09 16:13:00,
2013-03-09 11:21:00,58.5,28.8,30.24,NNW,347,0.0,5.0,32,0.00,,SKC,0.00,VWS V14.01,2013-03-09 16:21:00,
2013-03-09 11:25:00,58.2,27.7,30.24,WNW,286,3.0,7.0,31,0.00,,SKC,0.00,VWS V14.01,2013-03-09 16:25:00,
2013-03-09 11:32:00,57.8,28.2,30.24,WNW,303,1.0,7.0,32,0.00,,SKC,0.00,VWS V14.01,2013-03-09 16:32:00,
2013-03-09 11:33:00,57.8,28.2,30.24,WNW,303,0.0,1.0,32,0.00,,SKC,0.00,VWS V14.01,2013-03-09 16:33:00,
2013-03-09 11:37:00,58.2,28.5,30.24,NNW,347,0.0,7.0,32,0.00,,SKC,0.00,VWS V14.01,2013-03-09 16:37:00,
2013-03-09 11:41:00,58.6,29.6,30.23,NW,324,4.0,7.0,33,0.00,,SKC,0.00,VWS V14.01,2013-03-09 16:41:00,
2013-03-09 11:49:00,59.6,28.1,30.23,ENE,59,0.0,7.0,30,0.00,,SKC,0.00,VWS V14.01,2013-03-09 16:49:00,
2013-03-09 11:53:00,60.2,27.9,30.23,WNW,286,3.0,7.0,29,0.00,,SKC,0.00,VWS V14.01,2013-03-09 16:53:00,
2013-03-09 11:57:00,60.2,28.7,30.23,NNE,29,0.0,7.0,30,0.00,,SKC,0.00,VWS V14.01,2013-03-09 16:57:00,
2013-03-09 12:05:00,61.1,30.3,30.23,North,355,0.0,1.0,31,0.00,,SKC,0.00,VWS V14.01,2013-03-09 17:05:00,
2013-03-09 12:09:00,61.4,29.7,30.22,NNW,331,3.0,5.0,30,0.00,,SKC,0.00,VWS V14.01,2013-03-09 17:09:00,
2013-03-09 12:13:00,61.8,29.2,30.22,North,355,0.0,5.0,29,0.00,,SKC,0.00,VWS V14.01,2013-03-09 17:13:00,
2013-03-09 12:17:00,62.0,28.5,30.22,NW,311,2.0,5.0,28,0.00,,SKC,0.00,VWS V14.01,2013-03-09 17:17:00,
2013-03-09 12:25:00,62.3,30.5,30.21,NNE,22,0.0,6.0,30,0.00,,SKC,0.00,VWS V14.01,2013-03-09 17:25:00,
2013-03-09 12:29:00,62.6,32.3,30.21,NNW,338,0.0,6.0,32,0.00,,SKC,0.00,VWS V14.01,2013-03-09 17:29:00,
2013-03-09 12:32:00,62.9,29.3,30.21,North,355,3.0,6.0,28,0.00,,SKC,0.00,VWS V14.01,2013-03-09 17:32:00,
2013-03-09 12:37:00,62.7,28.3,30.20,NNE,24,3.0,6.0,27,0.00,,SKC,0.00,VWS V14.01,2013-03-09 17:37:00,
2013-03-09 12:46:00,63.6,30.8,30.20,NNE,22,7.0,7.0,29,0.00,,SKC,0.00,VWS V14.01,2013-03-09 17:46:00,
2013-03-09 12:50:00,64.0,27.5,30.19,NNW,342,0.0,7.0,25,0.00,,SKC,0.00,VWS V14.01,2013-03-09 17:50:00,
2013-03-09 12:54:00,64.0,27.5,30.19,NE,34,4.0,7.0,25,0.00,,SKC,0.00,VWS V14.01,2013-03-09 17:54:00,
2013-03-09 12:58:00,64.3,28.7,30.19,NE,42,0.0,7.0,26,0.00,,SKC,0.00,VWS V14.01,2013-03-09 17:58:00,
2013-03-09 13:02:00,64.9,29.2,30.19,NNE,29,1.0,7.0,26,0.00,,SKC,0.00,VWS V14.01,2013-03-09 18:02:00,
2013-03-09 13:10:00,64.5,29.8,30.18,NE,40,2.0,6.0,27,0.00,,SKC,0.00,VWS V14.01,2013-03-09 18:10:00,
2013-03-09 13:14:00,64.2,27.7,30.18,North,5,0.0,6.0,25,0.00,,SKC,0.00,VWS V14.01,2013-03-09 18:14:00,
2013-03-09 13:18:00,64.5,26.9,30.18,North,5,1.0,6.0,24,0.00,,SKC,0.00,VWS V14.01,2013-03-09 18:18:00,
2013-03-09 13:26:00,64.2,25.7,30.18,NNE,31,0.0,9.0,23,0.00,,SKC,0.00,VWS V14.01,2013-03-09 18:26:00,
2013-03-09 13:30:00,64.1,26.6,30.18,NNW,343,0.0,9.0,24,0.00,,SKC,0.00,VWS V14.01,2013-03-09 18:30:00,
2013-03-09 13:32:00,64.3,24.7,30.18,NNE,24,5.0,9.0,22,0.00,,SKC,0.00,VWS V14.01,2013-03-09 18:32:00,
2013-03-09 13:34:00,64.3,24.7,30.18,NNW,332,2.0,5.0,22,0.00,,SKC,0.00,VWS V14.01,2013-03-09 18:34:00,
2013-03-09 13:38:00,64.5,25.9,30.17,NNE,32,1.0,5.0,23,0.00,,SKC,0.00,VWS V14.01,2013-03-09 18:38:00,
2013-03-09 13:42:00,65.1,25.3,30.17,NNE,26,0.0,5.0,22,0.00,,SKC,0.00,VWS V14.01,2013-03-09 18:42:00,
2013-03-09 13:50:00,65.4,25.6,30.17,NE,53,6.0,8.0,22,0.00,,SKC,0.00,VWS V14.01,2013-03-09 18:50:00,
2013-03-09 13:54:00,64.3,25.7,30.17,NNE,32,5.0,8.0,23,0.00,,SKC,0.00,VWS V14.01,2013-03-09 18:54:00,
2013-03-09 14:02:00,63.8,26.3,30.17,NE,46,0.0,8.0,24,0.00,,SKC,0.00,VWS V14.01,2013-03-09 19:02:00,
2013-03-09 14:06:00,63.7,25.2,30.17,NE,56,1.0,6.0,23,0.00,,SKC,0.00,VWS V14.01,2013-03-09 19:06:00,
2013-03-09 14:14:00,64.1,26.6,30.17,NE,46,1.0,8.0,24,0.00,,SKC,0.00,VWS V14.01,2013-03-09 19:14:00,
2013-03-09 14:22:00,64.7,25.0,30.17,NNE,31,3.0,8.0,22,0.00,,SKC,0.00,VWS V14.01,2013-03-09 19:22:00,
2013-03-09 14:26:00,63.8,26.3,30.17,NNE,22,0.0,8.0,24,0.00,,SKC,0.00,VWS V14.01,2013-03-09 19:26:00,
2013-03-09 14:30:00,63.5,27.1,30.17,NE,36,3.0,8.0,25,0.00,,SKC,0.00,VWS V14.01,2013-03-09 19:30:00,
2013-03-09 14:32:00,63.6,25.1,30.17,North,9,0.0,8.0,23,0.00,,SKC,0.00,VWS V14.01,2013-03-09 19:32:00,
2013-03-09 14:34:00,63.8,25.3,30.17,NNE,18,1.0,7.0,23,0.00,,SKC,0.00,VWS V14.01,2013-03-09 19:34:00,
2013-03-09 14:38:00,63.6,25.1,30.17,NNE,16,0.0,9.0,23,0.00,,SKC,0.00,VWS V14.01,2013-03-09 19:38:00,
2013-03-09 14:46:00,63.4,26.0,30.17,NE,54,3.0,9.0,24,0.00,,SKC,0.00,VWS V14.01,2013-03-09 19:46:00,
2013-03-09 14:50:00,63.2,26.8,30.17,NNE,23,0.0,9.0,25,0.00,,SKC,0.00,VWS V14.01,2013-03-09 19:50:00,
2013-03-09 14:54:00,63.2,28.7,30.17,NE,49,4.0,9.0,27,0.00,,SKC,0.00,VWS V14.01,2013-03-09 19:54:00,
2013-03-09 14:58:00,63.0,27.6,30.17,NE,47,6.0,9.0,26,0.00,,SKC,0.00,VWS V14.01,2013-03-09 19:58:00,
2013-03-09 15:02:00,63.0,29.4,30.17,NE,50,1.0,9.0,28,0.00,,SKC,0.00,VWS V14.01,2013-03-09 20:02:00,
2013-03-09 15:10:00,62.7,28.3,30.17,NNE,24,0.0,6.0,27,0.00,,SKC,0.00,VWS V14.01,2013-03-09 20:10:00,
2013-03-09 15:14:00,63.2,28.7,30.17,NE,39,0.0,7.0,27,0.00,,SKC,0.00,VWS V14.01,2013-03-09 20:14:00,
2013-03-09 15:18:00,63.6,28.1,30.17,NE,38,2.0,7.0,26,0.00,,SKC,0.00,VWS V14.01,2013-03-09 20:18:00,
2013-03-09 15:22:00,63.8,29.2,30.17,NE,38,0.0,7.0,27,0.00,,SKC,0.00,VWS V14.01,2013-03-09 20:22:00,
2013-03-09 15:26:00,63.8,28.3,30.17,NNE,20,6.0,7.0,26,0.00,,SKC,0.00,VWS V14.01,2013-03-09 20:26:00,
2013-03-09 15:30:00,64.0,27.5,30.17,NNE,32,0.0,7.0,25,0.00,,SKC,0.00,VWS V14.01,2013-03-09 20:30:00,
2013-03-09 15:32:00,63.8,26.3,30.17,NE,35,1.0,7.0,24,0.00,,SKC,0.00,VWS V14.01,2013-03-09 20:32:00,
2013-03-09 15:34:00,63.5,28.0,30.17,NNE,30,2.0,5.0,26,0.00,,SKC,0.00,VWS V14.01,2013-03-09 20:34:00,
2013-03-09 15:38:00,63.7,27.2,30.17,NNE,19,0.0,5.0,25,0.00,,SKC,0.00,VWS V14.01,2013-03-09 20:38:00,
2013-03-09 15:42:00,63.7,26.3,30.17,ENE,58,0.0,6.0,24,0.00,,SKC,0.00,VWS V14.01,2013-03-09 20:42:00,
2013-03-09 15:47:00,63.6,27.2,30.17,NE,46,2.0,6.0,25,0.00,,SKC,0.00,VWS V14.01,2013-03-09 20:47:00,
2013-03-09 15:55:00,63.0,27.6,30.17,NE,50,3.0,6.0,26,0.00,,SKC,0.00,VWS V14.01,2013-03-09 20:55:00,
2013-03-09 15:59:00,63.1,27.7,30.17,NE,54,0.0,6.0,26,0.00,,SKC,0.00,VWS V14.01,2013-03-09 20:59:00,
2013-03-09 16:02:00,63.4,27.9,30.17,NNE,19,3.0,6.0,26,0.00,,SKC,0.00,VWS V14.01,2013-03-09 21:02:00,
2013-03-09 16:07:00,63.6,27.2,30.17,NNE,21,0.0,4.0,25,0.00,,SKC,0.00,VWS V14.01,2013-03-09 21:07:00,
2013-03-09 16:11:00,63.5,27.1,30.17,NNW,342,1.0,4.0,25,0.00,,SKC,0.00,VWS V14.01,2013-03-09 21:11:00,
2013-03-09 16:19:00,63.4,27.0,30.18,NE,40,0.0,4.0,25,0.00,,SKC,0.00,VWS V14.01,2013-03-09 21:19:00,
2013-03-09 16:27:00,63.0,29.4,30.18,WNW,303,0.0,4.0,28,0.00,,SKC,0.00,VWS V14.01,2013-03-09 21:27:00,
2013-03-09 16:31:00,63.0,30.3,30.18,NNW,331,0.0,4.0,29,0.00,,SKC,0.00,VWS V14.01,2013-03-09 21:31:00,
2013-03-09 16:32:00,62.9,29.3,30.18,NNW,331,0.0,4.0,28,0.00,,SKC,0.00,VWS V14.01,2013-03-09 21:32:00,
2013-03-09 16:35:00,62.9,30.2,30.18,NNW,331,0.0,0.0,29,0.00,,SKC,0.00,VWS V14.01,2013-03-09 21:35:00,
2013-03-09 16:39:00,62.7,30.0,30.18,WNW,285,0.0,2.0,29,0.00,,SKC,0.00,VWS V14.01,2013-03-09 21:39:00,
2013-03-09 16:47:00,61.5,31.4,30.18,West,269,0.0,3.0,32,0.00,,SKC,0.00,VWS V14.01,2013-03-09 21:47:00,
2013-03-09 16:51:00,61.2,29.5,30.18,WNW,297,0.0,3.0,30,0.00,,SKC,0.00,VWS V14.01,2013-03-09 21:51:00,
2013-03-09 16:55:00,61.0,28.5,30.18,WNW,297,0.0,3.0,29,0.00,,SKC,0.00,VWS V14.01,2013-03-09 21:55:00,
2013-03-09 17:02:00,60.6,30.6,30.18,WNW,297,0.0,3.0,32,0.00,,SKC,0.00,VWS V14.01,2013-03-09 22:02:00,
2013-03-09 17:07:00,60.3,30.3,30.18,WNW,297,0.0,2.0,32,0.00,,SKC,0.00,VWS V14.01,2013-03-09 22:07:00,
2013-03-09 17:11:00,60.2,29.5,30.18,NW,307,0.0,3.0,31,0.00,,SKC,0.00,VWS V14.01,2013-03-09 22:11:00,
2013-03-09 17:19:00,59.8,29.9,30.18,NW,307,0.0,3.0,32,0.00,,SKC,0.00,VWS V14.01,2013-03-09 22:19:00,
2013-03-09 17:23:00,59.6,30.5,30.18,NW,307,0.0,3.0,33,0.00,,SKC,0.00,VWS V14.01,2013-03-09 22:23:00,
2013-03-09 17:27:00,59.3,30.2,30.18,NW,307,0.0,3.0,33,0.00,,SKC,0.00,VWS V14.01,2013-03-09 22:27:00,
2013-03-09 17:31:00,59.1,30.8,30.18,NW,307,0.0,3.0,34,0.00,,SKC,0.00,VWS V14.01,2013-03-09 22:31:00,
2013-03-09 17:35:00,58.9,30.6,30.18,NW,307,0.0,0.0,34,0.00,,SKC,0.00,VWS V14.01,2013-03-09 22:35:00,
2013-03-09 17:39:00,58.6,29.6,30.18,NW,307,0.0,0.0,33,0.00,,SKC,0.00,VWS V14.01,2013-03-09 22:39:00,
2013-03-09 17:43:00,58.3,30.1,30.18,NW,307,0.0,0.0,34,0.00,,SKC,0.00,VWS V14.01,2013-03-09 22:43:00,
2013-03-09 17:47:00,58.0,29.8,30.18,NW,307,0.0,0.0,34,0.00,,SKC,0.00,VWS V14.01,2013-03-09 22:47:00,
2013-03-09 17:51:00,57.8,29.6,30.18,NW,307,0.0,0.0,34,0.00,,SKC,0.00,VWS V14.01,2013-03-09 22:51:00,
2013-03-09 17:55:00,57.5,30.1,30.19,NW,307,0.0,0.0,35,0.00,,SKC,0.00,VWS V14.01,2013-03-09 22:55:00,
2013-03-09 18:02:00,56.8,30.8,30.19,NW,307,0.0,0.0,37,0.00,,SKC,0.00,VWS V14.01,2013-03-09 23:02:00,
2013-03-09 18:03:00,56.7,30.7,30.19,NW,307,0.0,0.0,37,0.00,,SKC,0.00,VWS V14.01,2013-03-09 23:03:00,
2013-03-09 18:11:00,56.0,32.0,30.19,NW,307,0.0,0.0,40,0.00,,SKC,0.00,VWS V14.01,2013-03-09 23:11:00,
2013-03-09 18:15:00,55.6,32.3,30.19,NW,307,0.0,0.0,41,0.00,,SKC,0.00,VWS V14.01,2013-03-09 23:15:00,
2013-03-09 18:23:00,54.8,32.2,30.19,NW,307,0.0,0.0,42,0.00,,SKC,0.00,VWS V14.01,2013-03-09 23:23:00,
2013-03-09 18:27:00,54.5,31.9,30.19,NW,307,0.0,0.0,42,0.00,,SKC,0.00,VWS V14.01,2013-03-09 23:27:00,
2013-03-09 18:31:00,54.0,32.6,30.19,NW,307,0.0,0.0,44,0.00,,SKC,0.00,VWS V14.01,2013-03-09 23:31:00,
2013-03-09 18:39:00,53.1,33.4,30.19,NW,307,0.0,0.0,47,0.00,,SKC,0.00,VWS V14.01,2013-03-09 23:39:00,
2013-03-09 18:47:00,52.3,33.7,30.20,NW,307,0.0,0.0,49,0.00,,SKC,0.00,VWS V14.01,2013-03-09 23:47:00,
2013-03-09 18:51:00,51.9,33.4,30.20,NW,307,0.0,0.0,49,0.00,,SKC,0.00,VWS V14.01,2013-03-09 23:51:00,
2013-03-09 18:55:00,51.5,33.5,30.20,NW,307,0.0,0.0,50,0.00,,SKC,0.00,VWS V14.01,2013-03-09 23:55:00,
2013-03-09 18:59:00,51.0,32.5,30.20,NW,307,0.0,0.0,49,0.00,,SKC,0.00,VWS V14.01,2013-03-09 23:59:00,
2013-03-09 19:03:00,50.3,31.9,30.20,NW,307,0.0,0.0,49,0.00,,SKC,0.00,VWS V14.01,2013-03-10 00:03:00,
2013-03-09 19:11:00,49.0,31.7,30.20,NW,307,0.0,0.0,51,0.00,,SKC,0.00,VWS V14.01,2013-03-10 00:11:00,
2013-03-09 19:15:00,48.4,31.6,30.20,NW,307,0.0,0.0,52,0.00,,SKC,0.00,VWS V14.01,2013-03-10 00:15:00,
2013-03-09 19:19:00,48.0,32.2,30.20,NW,307,0.0,0.0,54,0.00,,SKC,0.00,VWS V14.01,2013-03-10 00:19:00,
2013-03-09 19:27:00,47.4,32.5,30.21,NW,307,0.0,0.0,56,0.00,,SKC,0.00,VWS V14.01,2013-03-10 00:27:00,
2013-03-09 19:35:00,47.0,32.1,30.20,NW,307,0.0,0.0,56,0.00,,SKC,0.00,VWS V14.01,2013-03-10 00:35:00,
2013-03-09 19:43:00,46.1,31.7,30.21,NE,42,1.0,3.0,57,0.00,,SKC,0.00,VWS V14.01,2013-03-10 00:43:00,
2013-03-09 19:47:00,45.7,31.8,30.21,NE,42,0.0,3.0,58,0.00,,SKC,0.00,VWS V14.01,2013-03-10 00:47:00,
2013-03-09 19:51:00,45.5,31.6,30.21,NE,42,0.0,3.0,58,0.00,,SKC,0.00,VWS V14.01,2013-03-10 00:51:00,
2013-03-09 19:55:00,45.4,31.1,30.21,NE,42,0.0,3.0,57,0.00,,SKC,0.00,VWS V14.01,2013-03-10 00:55:00,
2013-03-09 20:02:00,45.2,31.7,30.22,NE,42,0.0,3.0,59,0.00,,SKC,0.00,VWS V14.01,2013-03-10 01:02:00,
2013-03-09 20:03:00,45.1,31.6,30.21,NE,42,0.0,0.0,59,0.00,,SKC,0.00,VWS V14.01,2013-03-10 01:03:00,
2013-03-09 20:07:00,45.1,32.1,30.22,NE,42,0.0,0.0,60,0.00,,SKC,0.00,VWS V14.01,2013-03-10 01:07:00,
2013-03-09 20:11:00,44.9,32.3,30.22,NE,42,0.0,0.0,61,0.00,,SKC,0.00,VWS V14.01,2013-03-10 01:11:00,
2013-03-09 20:19:00,44.5,31.9,30.22,NE,42,0.0,0.0,61,0.00,,SKC,0.00,VWS V14.01,2013-03-10 01:19:00,
2013-03-09 20:23:00,44.3,30.9,30.22,NE,42,0.0,0.0,59,0.00,,SKC,0.00,VWS V14.01,2013-03-10 01:23:00,
2013-03-09 20:31:00,44.0,30.6,30.22,NE,42,0.0,0.0,59,0.00,,SKC,0.00,VWS V14.01,2013-03-10 01:31:00,
2013-03-09 20:35:00,43.9,30.5,30.22,NE,42,0.0,0.0,59,0.00,,SKC,0.00,VWS V14.01,2013-03-10 01:35:00,
2013-03-09 20:39:00,43.6,31.9,30.22,NE,42,0.0,2.0,63,0.00,,SKC,0.00,VWS V14.01,2013-03-10 01:39:00,
2013-03-09 20:43:00,43.3,31.6,30.22,NE,42,0.0,2.0,63,0.00,,SKC,0.00,VWS V14.01,2013-03-10 01:43:00,
2013-03-09 20:52:00,42.9,32.0,30.22,NE,42,0.0,2.0,65,0.00,,SKC,0.00,VWS V14.01,2013-03-10 01:52:00,
2013-03-09 21:00:00,42.5,32.0,30.23,NE,42,0.0,2.0,66,0.00,,SKC,0.00,VWS V14.01,2013-03-10 02:00:00,
2013-03-09 21:08:00,41.9,31.0,30.23,NE,42,0.0,0.0,65,0.00,,SKC,0.00,VWS V14.01,2013-03-10 02:08:00,
2013-03-09 21:12:00,41.6,31.1,30.23,NE,42,0.0,0.0,66,0.00,,SKC,0.00,VWS V14.01,2013-03-10 02:12:00,
2013-03-09 21:16:00,41.3,31.9,30.23,NE,42,0.0,0.0,69,0.00,,SKC,0.00,VWS V14.01,2013-03-10 02:16:00,
2013-03-09 21:20:00,41.1,31.7,30.23,NE,42,0.0,0.0,69,0.00,,SKC,0.00,VWS V14.01,2013-03-10 02:20:00,
2013-03-09 21:24:00,41.0,32.0,30.23,NE,42,0.0,0.0,70,0.00,,SKC,0.00,VWS V14.01,2013-03-10 02:24:00,
2013-03-09 21:32:00,40.9,31.9,30.24,NE,42,0.0,0.0,70,0.00,,SKC,0.00,VWS V14.01,2013-03-10 02:32:00,
2013-03-09 21:36:00,40.9,32.2,30.24,NE,42,0.0,0.0,71,0.00,,SKC,0.00,VWS V14.01,2013-03-10 02:36:00,
2013-03-09 21:40:00,40.8,32.8,30.24,NE,42,0.0,0.0,73,0.00,,SKC,0.00,VWS V14.01,2013-03-10 02:40:00,
2013-03-09 21:44:00,40.8,32.8,30.23,NE,42,0.0,0.0,73,0.00,,SKC,0.00,VWS V14.01,2013-03-10 02:44:00,
2013-03-09 21:52:00,40.3,32.0,30.24,NE,42,0.0,0.0,72,0.00,,SKC,0.00,VWS V14.01,2013-03-10 02:52:00,
2013-03-09 21:56:00,40.0,31.4,30.23,NE,42,0.0,0.0,71,0.00,,SKC,0.00,VWS V14.01,2013-03-10 02:56:00,
2013-03-09 22:00:00,39.8,31.2,30.24,NE,42,0.0,0.0,71,0.00,,SKC,0.00,VWS V14.01,2013-03-10 03:00:00,
2013-03-09 22:04:00,39.6,31.0,30.24,NE,42,0.0,0.0,71,0.00,,SKC,0.00,VWS V14.01,2013-03-10 03:04:00,
2013-03-09 22:08:00,39.5,30.9,30.24,NE,42,0.0,0.0,71,0.00,,SKC,0.00,VWS V14.01,2013-03-10 03:08:00,
2013-03-09 22:12:00,39.5,32.6,30.24,NE,42,0.0,0.0,76,0.00,,SKC,0.00,VWS V14.01,2013-03-10 03:12:00,
2013-03-09 22:16:00,39.5,32.9,30.24,NE,42,0.0,0.0,77,0.00,,SKC,0.00,VWS V14.01,2013-03-10 03:16:00,
2013-03-09 22:24:00,39.4,31.8,30.23,NE,42,0.0,0.0,74,0.00,,SKC,0.00,VWS V14.01,2013-03-10 03:24:00,
2013-03-09 22:28:00,39.3,32.7,30.24,NE,42,0.0,0.0,77,0.00,,SKC,0.00,VWS V14.01,2013-03-10 03:28:00,
2013-03-09 22:32:00,39.2,32.6,30.24,NE,42,0.0,0.0,77,0.00,,SKC,0.00,VWS V14.01,2013-03-10 03:32:00,
2013-03-09 22:40:00,39.0,32.7,30.24,NE,42,0.0,0.0,78,0.00,,SKC,0.00,VWS V14.01,2013-03-10 03:40:00,
2013-03-09 22:48:00,38.6,32.3,30.24,NE,42,0.0,0.0,78,0.00,,SKC,0.00,VWS V14.01,2013-03-10 03:48:00,
2013-03-09 22:52:00,38.4,32.2,30.24,NE,42,0.0,0.0,78,0.00,,SKC,0.00,VWS V14.01,2013-03-10 03:52:00,
2013-03-09 23:00:00,38.2,32.0,30.24,NE,42,0.0,0.0,78,0.00,,SKC,0.00,VWS V14.01,2013-03-10 04:00:00,
2013-03-09 23:08:00,38.0,31.8,30.24,NE,42,0.0,0.0,78,0.00,,SKC,0.00,VWS V14.01,2013-03-10 04:08:00,
2013-03-09 23:16:00,37.9,30.7,30.24,NE,42,0.0,0.0,75,0.00,,SKC,0.00,VWS V14.01,2013-03-10 04:16:00,
2013-03-09 23:20:00,37.8,30.3,30.24,NE,42,0.0,0.0,74,0.00,,SKC,0.00,VWS V14.01,2013-03-10 04:20:00,
2013-03-09 23:24:00,37.7,30.5,30.24,NE,42,0.0,0.0,75,0.00,,SKC,0.00,VWS V14.01,2013-03-10 04:24:00,
2013-03-09 23:32:00,37.5,30.3,30.25,NE,42,0.0,0.0,75,0.00,,SKC,0.00,VWS V14.01,2013-03-10 04:32:00,
2013-03-09 23:36:00,37.3,30.1,30.24,NE,42,0.0,0.0,75,0.00,,SKC,0.00,VWS V14.01,2013-03-10 04:36:00,
2013-03-09 23:40:00,37.1,30.2,30.24,NE,42,0.0,0.0,76,0.00,,SKC,0.00,VWS V14.01,2013-03-10 04:40:00,
2013-03-09 23:44:00,36.9,30.0,30.25,NE,42,0.0,0.0,76,0.00,,SKC,0.00,VWS V14.01,2013-03-10 04:44:00,
2013-03-09 23:48:00,36.9,29.7,30.24,NE,42,0.0,0.0,75,0.00,,SKC,0.00,VWS V14.01,2013-03-10 04:48:00,
2013-03-09 23:56:00,36.9,30.0,30.25,NE,42,0.0,0.0,76,0.00,,SKC,0.00,VWS V14.01,2013-03-10 04:56:00,